Zurück zum Katalog

STARLINK-35096

AktivKommunikationVLEO
NORAD 65479·PAYLOAD·🇺🇸 United States

Gestartet Sep 3, 2025 von Cape Canaveral Space Force Station

Loading…

Nächste Überflüge (nächste 24 Stunden)

TLE

AktuellSource: CelesTrak SupGP

Epoche: Sep 14, 2026, 22:41 UTC

1 65479C 25195X   26257.94562500  .00003450  00000+0  11095-3 0  2573
2 65479  53.1581  97.6057 0001377  82.3039 172.4827 15.31698209    19

Verfolge STARLINK-35096 in Echtzeit mit AllMySat

Download on the App Store